EW1682 Weather Reports


time (UTC)temp
F
wind
direction
speed
knots
gust
knots
rain 1hr
in
rain 24hr
in
rain mn
in
humidity
%
barometer
mb
20260507000207 69 184 0.0 0.9 0.00 0.00 0.00 73 1021.3
20260506235707 69 184 0.9 1.7 0.00 0.00 0.00 73 1021.3
20260506234706 69 175 0.9 0.9 0.00 0.00 0.00 72 1021.3
20260506234206 69 189 0.0 0.0 0.00 0.00 0.00 72 1021.3
20260506233212 69 211 0.0 0.0 0.00 0.00 0.00 72 1021.3
20260506232708 69 211 0.0 0.0 0.00 0.00 0.00 72 1021.3
20260506232209 69 211 0.9 1.7 0.00 0.00 0.00 72 1021.3
20260506230206 69 176 0.0 1.7 0.00 0.00 0.00 71 1021.3
20260506225206 69 175 0.9 1.7 0.00 0.00 0.00 71 1021.3
20260506224706 69 240 1.7 2.6 0.00 0.00 0.00 71 1021.3
20260506224206 69 234 1.7 2.6 0.00 0.00 0.00 71 1021.3
20260506223707 69 223 1.7 2.6 0.00 0.00 0.00 71 1021.3
20260506222710 69 206 1.7 5.2 0.00 0.00 0.00 70 1021.3
20260506221708 69 195 0.9 2.6 0.00 0.00 0.00 71 1021.3
20260506221207 69 202 1.7 2.6 0.00 0.00 0.00 71 1021.3
20260506220707 69 240 2.6 2.6 0.00 0.00 0.00 71 1021.3
20260506220210 69 178 2.6 6.1 0.00 0.00 0.00 71 1021.3
20260506215706 69 202 1.7 2.6 0.00 0.00 0.00 71 1021.3
20260506215207 69 221 0.9 2.6 0.00 0.00 0.00 71 1021.3
20260506214708 69 225 1.7 2.6 0.00 0.00 0.00 71 1021.3
20260506214206 69 194 0.9 2.6 0.00 0.00 0.00 72 1021.3
20260506212708 69 197 0.9 2.6 0.00 0.00 0.00 72 1021.3
20260506212207 69 217 0.9 1.7 0.00 0.00 0.00 72 1021.3
20260506211707 69 211 0.9 2.6 0.00 0.00 0.00 72 1021.3
20260506210210 68 180 1.7 2.6 0.00 0.00 0.00 73 1021.3
20260506205709 68 210 1.7 4.3 0.00 0.00 0.00 73 1021.3
20260506205207 68 187 1.7 5.2 0.00 0.00 0.00 73 1021.3
20260506204707 68 215 1.7 2.6 0.00 0.00 0.00 74 1021.3
20260506204206 68 177 2.6 5.2 0.00 0.00 0.00 74 1021.3
20260506203711 67 191 2.6 4.3 0.00 0.00 0.00 74 1021.3
20260506203207 67 233 1.7 2.6 0.00 0.00 0.00 74 1021.3
20260506202707 67 249 1.7 2.6 0.00 0.00 0.00 74 1021.3
20260506202206 67 234 0.9 4.3 0.00 0.00 0.00 74 1021.3
20260506195707 67 193 1.7 5.2 0.00 0.00 0.00 74 1021.3
20260506194209 67 197 2.6 4.3 0.00 0.00 0.00 74 1021.3
20260506193707 66 182 2.6 4.3 0.00 0.00 0.00 74 1021.3
20260506193208 66 216 4.3 6.1 0.00 0.00 0.00 74 1021.3
20260506192708 66 228 5.2 6.1 0.00 0.00 0.00 75 1021.3
20260506192209 66 229 3.5 7.8 0.00 0.00 0.00 75 1021.3
20260506190209 67 182 3.5 5.2 0.00 0.00 0.00 73 1021.3
20260506185708 67 180 3.5 5.2 0.00 0.00 0.00 73 1021.3
20260506185207 67 190 3.5 6.1 0.00 0.00 0.00 73 1021.3
20260506184707 67 200 2.6 4.3 0.00 0.00 0.00 73 1021.3
20260506184206 67 215 3.5 7.8 0.00 0.00 0.00 72 1021.3
20260506183707 68 181 2.6 7.8 0.00 0.00 0.00 70 1021.3
20260506183210 69 204 3.5 7.0 0.00 0.00 0.00 69 1021.3
20260506182708 70 188 4.3 4.3 0.00 0.00 0.00 67 1021.3
20260506182212 70 232 3.5 6.1 0.00 0.00 0.00 68 1021.3
20260506180206 71 217 0.9 5.2 0.00 0.00 0.00 66 1021.3
20260506175706 71 191 2.6 5.2 0.00 0.00 0.00 66 1021.3
20260506175206 71 186 1.7 4.3 0.00 0.00 0.00 66 1021.3
20260506174708 71 190 2.6 6.1 0.00 0.00 0.00 65 1021.3
20260506174206 71 217 0.9 4.3 0.00 0.00 0.00 66 1021.3
20260506173707 71 203 2.6 5.2 0.00 0.00 0.00 65 1021.3
20260506173208 71 169 2.6 5.2 0.00 0.00 0.00 64 1021.3
20260506172707 71 201 1.7 2.6 0.00 0.00 0.00 63 1021.3
20260506172206 71 200 1.7 2.6 0.00 0.00 0.00 63 1021.3
20260506165206 71 211 2.6 6.1 0.00 0.00 0.00 61 1021.3
20260506164708 70 269 3.5 7.0 0.00 0.00 0.00 61 1021.3
20260506164209 70 204 2.6 7.0 0.00 0.00 0.00 62 1021.3
20260506163709 70 279 2.6 4.3 0.00 0.00 0.00 62 1021.3
20260506163208 71 213 4.3 7.8 0.00 0.00 0.00 61 1021.3
20260506162217 72 191 1.7 7.8 0.00 0.00 0.00 58 1021.3
20260506160206 73 229 2.6 5.2 0.00 0.00 0.00 54 1021.3
20260506155705 73 198 2.6 5.2 0.00 0.00 0.00 53 1021.3
20260506155206 74 206 2.6 5.2 0.00 0.00 0.00 53 1021.3
20260506154710 74 211 1.7 5.2 0.00 0.00 0.00 52 1021.3
20260506151712 72 197 4.3 7.0 0.00 0.00 0.00 54 1021.3
20260506150205 73 207 2.6 8.7 0.00 0.00 0.00 53 1021.3
20260506145705 73 208 5.2 8.7 0.00 0.00 0.00 54 1021.3
20260506145206 73 190 4.3 8.7 0.00 0.00 0.00 54 1021.3
20260506144707 73 163 4.3 6.1 0.00 0.00 0.00 54 1021.3
20260506142215 72 197 4.3 7.8 0.00 0.00 0.00 58 1021.3
20260506140206 72 168 4.3 6.1 0.00 0.00 0.00 58 1021.3
20260506135706 72 228 4.3 7.8 0.00 0.00 0.00 59 1021.3
20260506135206 72 206 2.6 7.8 0.00 0.00 0.00 59 1021.3
20260506134706 72 174 1.7 7.8 0.00 0.00 0.00 60 1021.3
20260506134209 71 182 1.7 6.1 0.00 0.00 0.00 60 1021.3
20260506133216 71 216 4.3 7.8 0.00 0.00 0.00 61 1021.3
20260506131722 70 179 1.7 5.2 0.00 0.00 0.00 63 1021.3
20260506130206 69 208 3.5 10.4 0.00 0.00 0.00 66 1021.3
20260506125707 68 193 4.3 10.4 0.00 0.00 0.00 68 1021.3
20260506125206 67 202 2.6 10.4 0.00 0.00 0.00 70 1021.3
20260506124707 67 207 2.6 6.1 0.00 0.00 0.00 70 1021.3
20260506121718 65 178 2.6 4.3 0.00 0.00 0.00 74 1021.3
20260506120206 64 254 2.6 2.6 0.00 0.00 0.00 74 1021.3
20260506115710 64 234 2.6 6.1 0.00 0.00 0.00 75 1021.3
20260506115207 63 226 2.6 6.1 0.00 0.00 0.00 77 1021.3
20260506114207 63 233 1.7 7.0 0.00 0.00 0.00 78 1021.3
20260506111713 61 179 1.7 4.3 0.00 0.00 0.00 80 1021.3
20260506110207 61 196 2.6 2.6 0.00 0.00 0.00 82 1021.3
20260506105707 61 190 0.9 2.6 0.00 0.00 0.00 82 1021.3
20260506105207 60 178 0.9 2.6 0.00 0.00 0.00 82 1021.3
20260506104210 60 186 1.7 4.3 0.00 0.00 0.00 83 1021.3
20260506102219 60 194 1.7 2.6 0.00 0.00 0.00 82 1021.3
20260506100207 61 190 1.7 2.6 0.00 0.00 0.00 82 1021.3
20260506095207 61 208 1.7 2.6 0.00 0.00 0.00 82 1021.3
20260506094709 61 194 1.7 2.6 0.00 0.00 0.00 82 1021.3
20260506091210 61 192 0.9 2.6 0.00 0.00 0.00 81 1021.3
20260506085712 61 171 1.7 4.3 0.00 0.00 0.00 80 1021.3
20260506084714 62 203 2.6 6.1 0.00 0.00 0.00 80 1021.3
20260506071717 63 188 2.6 7.0 0.00 0.00 0.00 77 1021.3
20260506070209 63 196 1.7 2.6 0.00 0.00 0.00 77 1021.3
20260506060210 63 178 1.7 4.3 0.00 0.00 0.00 76 1021.3
20260506050206 64 213 0.9 1.7 0.00 0.00 0.00 72 1021.3
20260506044213 65 189 1.7 2.6 0.00 0.00 0.00 70 1021.3
20260506042208 65 180 1.7 2.6 0.00 0.00 0.00 70 1021.3
20260506041706 65 179 1.7 2.6 0.00 0.00 0.00 70 1021.3
20260506041206 65 181 0.9 2.6 0.00 0.00 0.00 69 1021.3
20260506040207 65 184 1.7 2.6 0.00 0.00 0.00 69 1021.3
20260506035709 65 191 2.6 2.6 0.00 0.00 0.00 69 1021.3
20260506034707 66 184 1.7 2.6 0.00 0.00 0.00 69 1021.3
20260506032212 66 211 1.7 7.0 0.00 0.00 0.00 68 1021.3
20260506030207 66 215 1.7 4.3 0.00 0.00 0.00 67 1021.3
20260506025219 66 202 1.7 5.2 0.00 0.00 0.00 66 1021.3
20260506024209 67 209 1.7 5.2 0.00 0.00 0.00 66 1021.3
20260506022217 67 212 0.9 2.6 0.00 0.00 0.00 64 1021.3
20260506020216 68 200 4.3 8.7 0.00 0.00 0.00 61 1021.3
20260506011707 68 181 1.7 5.2 0.00 0.00 0.00 59 1021.3
20260506011206 68 148 2.6 5.2 0.00 0.00 0.00 59 1021.3
20260506010709 68 201 1.7 4.3 0.00 0.00 0.00 58 1021.3
20260506010208 69 196 2.6 7.0 0.00 0.00 0.00 58 1021.3
20260506005708 69 164 1.7 5.2 0.00 0.00 0.00 57 1021.3
20260506005207 69 215 2.6 2.6 0.00 0.00 0.00 57 1021.3
20260506004706 69 201 2.6 7.8 0.00 0.00 0.00 57 1021.3
20260506004205 69 177 1.7 4.3 0.00 0.00 0.00 57 1021.3
20260506003707 69 180 1.7 5.2 0.00 0.00 0.00 56 1021.3
20260506002713 69 190 2.6 5.2 0.00 0.00 0.00 56 1021.3
20260506002207 70 196 2.6 13.0 0.00 0.00 0.00 55 1021.3
20260506001708 70 192 3.5 13.0 0.00 0.00 0.00 55 1021.3
20260506000707 71 178 5.2 7.0 0.00 0.00 0.00 54 1021.3